www.pogodaiklimat.ru

Погода и климат >> Архив погоды >> Россия >> Краснодарский край >> Анапа


АРХИВ ПОГОДЫ в Анапе

Время (UTC), дата Ветер
(напр.,м/с)
 
Видим.   Явления Облачность Т
(С)
Тd
(С)
f
(%)
Тe
(С)
Тes
(С)
Комфортность P
(гПа)
Po
(гПа)
Тmin
(С)
Tmax
(С)
R
(мм)
R24
(мм)
S
(см)
00 12.11 ЮЗ 10-12
{15}
10 км 6/6 600 м
[Sc]
+13.2 +9.9 80 +10 +10 тепло 1018.0 1014.0
03 12.11 ЮЗ 8-10
{12}
10 км 8/8 600 м
[Sc]
+13.1 +10.1 82 +10 +10 тепло 1018.3 1014.4 +10.8 8
06 12.11 Ю 6-10
{11}
10 км 6/6 600 м
[Cu hum]
+13.3 +10.7 84 +11 +11 тепло 1018.5 1014.5
09 12.11 Ю 10-12
{12}
10 км 9/6 600 м
[Sc Ac trans]
+14.2 +11.8 85 +11 +11 тепло 1017.4 1013.5
12 12.11 Ю 11-14
{14}
4000 м слабый ливневой дождь 10/10 300 м
[Cb cap]
+13.8 +12.7 93 +11 +11 тепло 1015.5 1011.5
15 12.11 Ю 11-13
{15}
4000 м в посл. час ливневой дождь 9/9 600 м
[Cb cap]
+14.2 +13.1 93 +11 +11 тепло 1014.4 1010.4 +14.6 2
18 12.11 Ю 8-11
{16}
4000 м в посл. час ливневой дождь 9/9 600 м
[Cb cap]
+14.1 +13.4 96 +12 +12 тепло 1014.4 1010.5
21 12.11 Ю 6
{12}
10 км 10/10 600 м
[Cb cap]
+14.6 +12.2 86 +13 +13 тепло 1015.1 1011.1
00 13.11 Ю 7-11
{11}
10 км 8/8 600 м
[Cb cap]
+14.1 +12.3 89 +12 +12 тепло 1015.8 1011.8
03 13.11 Ю 7
{11}
10 км 9/9 600 м
[Sc]
+14.3 +12.7 90 +12 +12 тепло 1016.4 1012.4 +13.9 1
06 13.11 Ю 8-10
{10}
4000 м дымка 9/3 300 м
[St Ci sp]
+14.2 +13.2 94 +12 +12 тепло 1017.9 1013.9
09 13.11 Ю 6
{11}
10 км 9/0
[Ci sp]
+15.9 +13.9 88 +15 +16 тепло 1018.0 1014.1
12 13.11 Ю 6 10 км 6/0
[Ac trans Ci sp]
+16.2 +13.7 85 +15 +16 тепло 1017.1 1013.2
15 13.11 СВ 2 10 км 4/0
[Ci sp]
+15.4 +10.5 73 +15 +15 тепло 1016.6 1012.7 +16.6
18 13.11 СВ 2 10 км ясно +13.9 +9.5 75 +13 +13 тепло 1016.2 1012.2
21 13.11 В 2 10 км 9/0
[Ac trans]
+14.1 +7.4 64 +14 +14 тепло 1015.3 1011.3
00 14.11 СВ 2 10 км 4/4 600 м
[Sc]
+13.3 +6.7 64 +13 +13 тепло 1014.1 1010.1
03 14.11 СВ 2 10 км 9/0
[Ac trans]
+14.2 +6.4 59 +14 +14 тепло 1013.7 1009.7 +13.2
06 14.11 В 2 20 км 9/0
[Ac As Ci sp]
+16.1 +6.3 52 +16 +17 тепло 1013.8 1009.9
09 14.11 В 1 20 км 5/0
[Ac trans Ci fib]
+22.6 +7.1 37 +23 +27 комфорт 1013.0 1009.2
12 14.11 Ю 4 20 км 5/0
[Ac As]
+19.8 +8.3 47 +21 +22 комфорт 1012.8 1009.0
15 14.11 Ю 3 10 км 3/0
[Ac As]
+17.4 +9.0 58 +17 +17 тепло 1013.9 1010.0 +22.9
18 14.11 штиль 0 10 км ясно +13.7 +7.6 67 +13 +13 тепло 1015.0 1011.0
21 14.11 СЗ 1 10 км ясно +11.5 +8.8 83 +11 +11 тепло 1016.3 1012.3
00 15.11 СВ 2 10 км ясно +10.8 +9.2 90 +9 +9 тепло 1017.7 1013.7
03 15.11 С 3 4000 м дымка 10/10 300 м
[St]
+10.8 +9.7 93 +9 +9 тепло 1019.5 1015.5 +10.0
06 15.11 С 4 4000 м дымка 10/10 300 м
[St]
+10.1 +9.3 95 +7 +7 тепло 1021.8 1017.7 +9.5
09 15.11 С 2 4000 м дымка 10/10 300 м
[St]
+10.4 +9.5 94 +9 +9 тепло 1022.3 1018.2
12 15.11 С 3 4000 м дымка 10/10 300 м
[St]
+10.0 +9.1 94 +8 +8 по сезону 1023.2 1019.1
15 15.11 С 3 4000 м дымка 10/10 300 м
[St]
+9.3 +8.5 95 +7 +7 по сезону 1024.2 1020.1 +11.0
18 15.11 С 4 4000 м дымка 10/10 300 м
[St]
+9.3 +8.1 92 +6 +6 по сезону 1025.1 1021.0
21 15.11 СВ 5 10 км 10/10 600 м
[Cb cap]
+8.7 +6.5 86 +5 +5 по сезону 1025.7 1021.6
00 16.11 С 4 10 км 10/10 600 м
[Cb cap]
+8.2 +6.3 88 +5 +5 по сезону 1026.3 1022.2
03 16.11 С 4 4000 м дымка 10/10 300 м
[St]
+7.4 +6.1 91 +4 +4 по сезону 1026.7 1022.6 +7.4
06 16.11 СВ 4 10 км 8/8 300 м
[St]
+7.5 +5.7 88 +4 +4 по сезону 1027.1 1023.0 +6.6
09 16.11 СВ 4 10 км 9/9 600 м
[Sc]
+10.1 +6.6 79 +7 +8 по сезону 1026.7 1022.6
12 16.11 СВ 5 10 км 9/9 600 м
[Sc]
+10.5 +7.2 80 +8 +8 по сезону 1025.8 1021.7
15 16.11 СВ 4 10 км 10/10 600 м
[Sc]
+9.3 +7.1 86 +6 +6 по сезону 1025.6 1021.5 +11.1
18 16.11 СВ 5 10 км 9/9 600 м
[Sc]
+8.9 +6.9 87 +5 +5 по сезону 1025.5 1021.5
21 16.11 СВ 5 10 км 9/9 600 м
[Sc]
+8.5 +6.4 87 +5 +5 по сезону 1025.0 1020.9
00 17.11 СВ 6 10 км 9/9 600 м
[Sc]
+8.0 +6.1 88 +4 +4 по сезону 1024.7 1020.6
03 17.11 СВ 5
{10}
10 км 4/4 600 м
[Sc]
+6.7 +5.2 90 +2 +2 по сезону 1024.1 1020.0 +6.7
06 17.11 В 6-11
{11}
10 км 9/0
[Ac trans]
+7.5 +5.3 86 +3 +3 по сезону 1024.5 1020.4 +6.7
09 17.11 СВ 6-10
{11}
20 км 9/0
[Ci sp]
+9.3 +5.4 77 +6 +7 по сезону 1023.8 1019.7
12 17.11 СВ 6-11
{11}
20 км 8/0
[Ci sp]
+9.5 +5.3 75 +6 +7 по сезону 1021.8 1017.8
15 17.11 СВ 6-11
{12}
10 км 8/0
[Ci sp]
+6.4 +4.1 85 +2 +2 прохладно 1021.3 1017.2 +10.4
18 17.11 В 9-14
{16}
10 км 6/0
[Ci sp]
+7.4 +3.8 78 +2 +2 по сезону 1019.8 1015.7
21 17.11 В 6-10
{15}
10 км ясно +6.8 +4.6 86 +2 +2 по сезону 1019.1 1015.0
00 18.11 СВ 4
{10}
10 км 3/0
[Ci sp]
+5.7 +3.7 87 +2 +2 по сезону 1019.2 1015.1
03 18.11 СВ 3 10 км 3/0
[Ci sp]
+5.2 +3.1 86 +2 +2 по сезону 1018.3 1014.2 +5.2
06 18.11 СВ 1 20 км 3/0
[Ci sp]
+7.1 +4.6 84 +6 +7 по сезону 1018.9 1014.8 +5.0
09 18.11 Ю 3 20 км 3/0
[Ci sp]
+14.6 +10.0 74 +14 +17 тепло 1017.8 1013.9
12 18.11 ЮЗ 2 20 км 8/5 600 м
[Sc Ac As]
+14.4 +11.6 83 +14 +14 тепло 1016.7 1012.7
15 18.11 СВ 2 10 км 3/3 600 м
[Sc]
+10.3 +7.2 81 +9 +9 тепло 1015.9 1011.9 +15.1
18 18.11 В 3 10 км 5/5 600 м
[Sc]
+11.3 +7.3 76 +10 +10 тепло 1015.2 1011.2

 

Местоположение метеостанции Анапа (Краснодарский край, Россия): широта 44.88 долгота 37.28 высота над уровнем моря 32 м.

В архиве по умолчанию представлена погода в Анапе за последнюю неделю. Архивные данные за месяц целиком и за предыдущие месяцы, начиная с января 2011 года, Вы можете получить, выбрав интересующий диапазон дат из раскрывающегося списка и нажав кнопку "Ввод!".

Внимание! Время в таблицах - всемирное. Для получения местного времени необходимо прибавить поправку, которая в Анапе равна 3 ч.

Смотрите также архив погоды в соседних городах и на ближайших метеорологических станциях:

Погода в Новороссийске (Краснодарский край, Россия) (48 км)
Погода в Темрюке (Краснодарский край, Россия) (50 км)
Погода в Крымске (Краснодарский край, Россия) (57 км)
Погода в Тамани (Краснодарский край, Россия) (58 км)
Погода в Геленджике (Краснодарский край, Россия) (72 км)
Погода в Славянске-на-Кубани (Краснодарский край, Россия) (80 км)
Погода в Керчи (Крым, Россия) (86 км)
Погода в Джубге (Краснодарский край, Россия) (129 км)
Погода на Мысовом (Крым, Россия) (131 км)
Погода в Краснодаре (Краснодарский край, Россия) (139 км)

Пояснения к столбцам:

Ветер - указаны скорость ветра в м/с - средняя за 10 мин, порывы в срок и между сроками (в фигурных скобках) и направление, откуда дует ветер: С - северный, СВ - северо-восточный, В - восточный, ЮВ - юго-восточный, Ю - южный, ЮЗ - юго-западный, З - западный, СЗ - северо-западный.
Видимость - горизонтальная дальность видимости в метрах или километрах. При видимости от 1 до 10 км при отсутствии осадков обычно наблюдается дымка, при ухудшении видимости до 1 км и менее - туман. В сухую погоду видимость может ухудшаться дымом, пылью или мглою.
Явления - указаны атмосферные явления, наблюдавшиеся в срок или в последний час перед сроком; фигурными скобками обозначены явления, наблюдавшиеся между сроками (за 1-3 часа до срока); квадратными скобками обозначены град или гололедные отложения с указанием их диаметра в мм.
Облачность - указаны через наклонную черту общая и нижняя облачность в баллах и высота нижней границы облаков в метрах; квадратными скобками обозначены формы облаков: Ci - перистые, Cs - перисто-слоистые, Cc - перисто-кучевые, Ac - высококучевые, As - высокослоистые, Sc - слоисто-кучевые, Ns - слоисто-дождевые, Cu - кучевые, Cb - кучево-дождевые. Подробнее классификацию облаков см. в Атласе облаков (PDF).
T - Температура воздуха - температура, измеренная на высоте 2 м над землей.
Td - Температура точки росы - температура, при понижении до которой содержащийся в воздухе водяной пар достигнет насыщения.
f - Относительная влажность воздуха - влажноcть воздуха, измеренная на высоте 2 м над землей.
Te - Эффективная температура - температура, которую ощущает одетый по сезону человек в тени. Характеристика душности погоды. При расчете учитывается влияние влажности воздуха и скорости ветра на теплоощущения человека.
Tes - Эффективная температура на солнце - температура, которую ощущает человек, с поправкой на солнечный нагрев. Характеристика знойности погоды. Зависит от высоты солнца над горизонтом, облачности и скорости ветра. Ночью, в пасмурную погоду, а также при ветре 12 м/с и более поправка равна нулю.
P - Атмосферное давление - приведенное к уровню моря атмосферное давление.
Po - Атмосферное давление - измеренное на уровне метеостанции атмосферное давление.
Tmin - Минимальная температура - минимум температуры воздуха на высоте 2 м над землей.
Tmax - Максимальная температура - максимум температуры воздуха на высоте 2 м над землей.
R - Количество осадков - Количество выпавших осадков за период времени, мм. При наведении курсора мыши на число - период времени, за который выпало указанное количество осадков.
R24 - Количество осадков - Количество выпавших осадков за 24 часа, мм.
S - Снежный покров - Высота снежного покрова, см. При наведении курсора мыши на число - состояние снежного покрова и степень покрытия местности в баллах.